This demonstration page uses our WeatherBlox Daily Observations layout. Learn more.

39.29038, -76.61219

Hourly Observations for October 20, 2020

Temp ( °F °C ) Dew Point ( °F °C ) Humidity (%) Winds ( mph kmh ) Pressure ( in mb ) Visibility ( mi km ) Precip ( " mm )
12:54 am 00:54 Mostly Clear 59 15 55 12.8 87 87 SE 3 6 30.22 1024 10 16.0934 0 0
1:54 am 01:54 Partly Cloudy 54 12.2 52 11.1 93 93 WNW 5 7 30.22 1023 10 16.0934 0 0
2:54 am 02:54 Mostly Cloudy 55 12.8 53 11.7 93 93 Calm 30.22 1023 9 14.48406 0 0
3:22 am 03:22 Mostly Cloudy 55 12.8 53 11.7 93 93 Calm 30.22 1023 10 16.0934 0 0
3:54 am 03:54 Cloudy 56 13.3 54 12.2 93 93 Calm 30.2 1023 9 14.48406 0 0
4:04 am 04:04 Cloudy 57 13.9 55 12.8 93 93 Calm 30.2 1023 9 14.48406 0 0
4:54 am 04:54 Cloudy 59 15 56 13.3 90 90 ESE 3 6 30.2 1023 9 14.48406 0 0
5:07 am 05:07 Cloudy with Mist and Fog 59 15 56 13.3 90 90 SE 5 7 30.2 1023 4 6.43736 0 0
5:19 am 05:19 Cloudy with Mist and Fog 59 15 57 13.9 93 93 ESE 3 6 30.19 1022 0.75 1.207005 0 0
5:54 am 05:54 Mostly Cloudy with Fog 59 15 57 13.9 93 93 Calm 30.2 1023 0.5 0.80467 0 0
6:54 am 06:54 Mostly Cloudy with Fog 60 15.6 58 14.4 93 93 Calm 30.21 1023 0.25 0.402335 0 0
7:54 am 07:54 Cloudy with Fog 60 15.6 58 14.4 93 93 VRB 3 6 30.22 1024 0.5 0.80467 0 0
8:54 am 08:54 Cloudy with Mist and Fog 60 15.6 59 15 96 96 SSE 6 9 30.22 1024 1 1.60934 0 0
9:39 am 09:39 Cloudy with Mist and Fog 61 16.1 59 15 93 93 W 5 7 30.23 1024 3 4.82802 0 0
9:54 am 09:54 Cloudy with Mist and Fog 61 16.1 59 15 93 93 SW 5 7 30.23 1024 3 4.82802 0 0
10:23 am 10:23 Cloudy with Mist and Fog 62 16.7 59 15 90 90 SW 3 6 30.24 1024 4 6.43736 0 0
10:54 am 10:54 Cloudy with Mist and Fog 63 17.2 59 15 87 87 Calm 30.24 1024 6 9.65604 0 0
11:38 am 11:38 Mostly Cloudy 66 18.9 59 15 78 78 S 3 6 30.24 1024 10 16.0934 0 0
11:54 am 11:54 Mostly Cloudy 67 19.4 59 15 76 76 VRB 3 6 30.24 1024 10 16.0934 0 0
12:54 pm 12:54 Mostly Cloudy 71 21.7 60 15.6 68 68 VRB 3 6 30.22 1024 10 16.0934 0 0
1:54 pm 13:54 Mostly Cloudy 73 22.8 60 15.6 64 64 SE 7 11 30.2 1023 10 16.0934 0 0
2:54 pm 14:54 Mostly Cloudy 74 23.3 60 15.6 62 62 VRB 3 6 30.19 1022 10 16.0934 0 0
3:54 pm 15:54 Mostly Cloudy 74 23.3 61 16.1 64 64 E 6 9 30.18 1022 10 16.0934 0 0
4:54 pm 16:54 Mostly Cloudy 72 22.2 61 16.1 68 68 ESE 10 17 30.19 1022 10 16.0934 0 0
5:54 pm 17:54 Partly Cloudy 70 21.1 61 16.1 73 73 ESE 8 13 30.19 1023 10 16.0934 0 0
6:54 pm 18:54 Partly Cloudy 67 19.4 61 16.1 81 81 SE 3 6 30.21 1023 10 16.0934 0 0
7:54 pm 19:54 Mostly Clear 65 18.3 61 16.1 87 87 SE 3 6 30.22 1023 10 16.0934 0 0
8:54 pm 20:54 Mostly Clear 64 17.8 60 15.6 87 87 Calm 30.23 1024 10 16.0934 0 0
9:54 pm 21:54 Clear 63 17.2 59 15 87 87 Calm 30.24 1024 10 16.0934 0 0
10:54 pm 22:54 Mostly Clear 61 16.1 58 14.4 90 90 Calm 30.23 1024 10 16.0934 0 0
11:54 pm 23:54 Mostly Clear 59 15 57 13.9 93 93 Calm 30.23 1024 9 14.48406 0 0

Powered by AerisWeather